RH
9 8 8 7 9 10 10 9 11 14 14 14 14 12 9 10 11 9 9 9 8 14 24 28 33 31 27 29 29 31 35 34 34 36 39 38 37 37 38 46 47 47 48 48 46 45 44 43 43 43 44 42 38 39 40 44 44 42 39 35 33 30 29 27 26 26 28 31 33 34 31 30 28 27 27 25 24 25 25 25 29 36 41 42 35 25 26 28 27 26 24 24 26 26 25 25 24
8 8 7 9 10 10 11 10 12 15 14 12 11 11 10 10 11 10 10 11 11 16 25 30 35 34 31 33 32 33 37 38 37 38 42 41 40 40 43 48 49 50 50 49 48 47 46 44 45 46 46 42 39 39 38 40 41 41 39 37 33 30 27 24 25 25 25 28 33 34 32 32 32 31 33 31 27 26 27 26 29 36 40 38 31 25 27 29 29 29 29 31 34 34 32 31 28
8 7 7 10 10 11 12 11 13 15 13 10 9 10 9 8 10 9 10 13 12 14 21 31 37 36 34 36 35 35 40 43 42 43 45 42 42 44 46 49 50 52 50 48 47 45 44 43 45 46 46 43 40 41 38 39 41 42 41 38 34 30 27 24 24 24 24 27 31 33 34 35 36 36 37 35 31 29 29 29 30 32 37 38 33 30 31 31 31 33 35 37 37 36 33 33 30
8 8 9 11 10 11 13 13 15 15 13 11 8 9 10 9 9 10 11 14 14 15 19 31 40 38 37 40 40 40 43 46 46 47 46 42 42 45 46 46 48 49 46 44 43 42 42 44 45 47 48 43 41 42 39 39 42 44 42 39 37 31 27 25 24 25 26 27 29 32 35 37 37 39 38 35 34 32 32 35 34 36 41 41 36 35 37 35 36 39 39 38 36 35 33 33 30
8 9 11 11 11 12 13 14 16 14 10 11 9 9 12 11 11 12 13 14 15 19 19 28 41 40 40 43 43 44 46 47 47 47 44 41 40 43 45 44 45 45 42 40 40 41 43 47 48 50 50 44 43 43 40 42 45 47 45 41 39 33 28 26 24 26 31 30 31 33 34 35 37 39 36 34 35 34 35 38 39 42 47 46 39 38 41 40 43 44 42 39 36 36 35 33 32
9 11 12 11 11 12 13 15 15 13 10 10 9 10 13 13 13 13 15 15 16 25 26 29 39 40 43 45 43 45 47 46 47 46 43 44 42 43 45 44 43 41 40 38 40 42 45 49 51 54 51 46 45 44 43 45 48 49 48 44 40 34 29 27 25 27 32 32 33 35 34 36 37 37 36 34 34 34 36 38 40 43 46 47 41 40 43 42 44 45 43 42 38 38 36 34 35
10 12 12 12 11 11 15 16 14 13 12 11 12 12 13 14 14 14 17 17 18 28 33 35 38 42 47 45 44 45 46 45 46 45 44 47 47 46 44 43 42 40 38 39 41 44 48 52 55 54 50 48 47 46 47 49 51 51 50 45 40 34 29 28 27 26 31 32 33 35 36 39 40 40 39 38 36 34 37 39 40 41 42 42 38 40 43 41 42 42 45 45 42 40 36 34 35
10 11 11 13 13 12 15 15 13 13 12 11 13 13 14 16 16 17 19 19 20 24 32 40 40 45 50 46 45 46 44 44 43 44 46 47 47 46 43 41 40 38 37 39 42 47 52 55 54 51 50 53 51 50 51 52 53 52 50 45 39 34 30 28 28 29 33 34 36 36 38 42 44 43 44 42 39 38 38 39 39 39 37 35 34 38 41 41 41 42 45 47 45 42 38 34 34
11 11 10 12 13 12 14 13 11 12 11 11 12 13 15 18 17 17 18 18 21 19 26 40 41 45 51 47 45 45 45 44 42 42 44 45 44 44 41 38 37 37 38 41 46 51 54 54 51 50 54 58 56 54 54 54 54 52 49 45 38 33 32 30 30 33 36 37 38 38 40 44 46 45 44 43 39 38 39 38 38 37 35 34 35 38 41 42 43 45 46 47 44 41 39 34 33
11 10 10 13 13 12 13 11 10 10 10 10 11 15 17 18 17 16 17 17 20 18 25 39 41 44 50 49 46 45 44 42 40 41 42 41 40 40 39 36 35 38 39 42 49 54 55 53 52 54 59 62 59 56 55 54 52 50 49 44 37 33 34 34 32 36 39 41 41 41 41 43 46 45 44 44 40 38 39 40 39 39 37 37 38 39 41 44 45 47 48 47 43 42 40 34 33
11 9 10 14 14 12 12 10 11 10 10 10 12 15 17 19 17 16 18 18 18 20 30 40 41 43 45 47 46 43 41 38 38 38 40 40 37 36 36 35 36 40 42 45 52 55 55 54 56 60 62 63 60 56 53 52 51 50 48 44 37 33 36 34 35 40 43 45 45 45 45 48 50 50 49 48 47 44 44 44 43 42 40 40 41 43 45 48 48 48 49 47 43 43 40 33 32
10 11 13 16 16 13 13 13 12 11 11 11 12 13 16 17 16 18 19 18 22 28 33 36 37 38 41 44 43 41 38 36 35 35 37 38 36 34 34 36 39 44 48 51 54 55 55 57 61 62 62 60 58 53 50 49 50 48 46 45 37 33 34 34 36 42 46 48 49 51 54 57 57 56 54 52 51 51 50 48 47 48 45 41 42 45 50 54 52 48 50 49 44 44 40 33 33
11 13 14 14 16 15 14 14 12 14 13 12 13 13 15 15 15 21 19 21 30 36 34 31 32 35 41 45 43 41 38 36 35 34 35 37 35 34 35 38 41 46 52 55 54 54 56 59 60 59 58 57 54 50 47 46 48 45 45 44 37 33 35 35 39 45 50 53 55 58 62 64 63 61 58 56 55 55 54 51 51 51 50 47 42 44 53 57 54 51 53 52 48 49 44 36 36
10 11 13 13 14 15 13 12 12 13 14 14 14 14 16 15 19 24 21 27 33 33 32 31 32 36 43 44 42 41 38 36 35 35 36 35 35 35 37 40 42 47 52 53 52 52 55 57 56 56 55 53 52 48 46 47 45 43 44 43 37 39 42 44 49 54 57 59 61 63 66 68 67 65 61 59 58 58 57 54 54 52 52 53 46 46 56 60 56 54 56 56 54 53 48 41 40
10 10 14 14 12 13 12 11 12 14 15 15 15 15 17 17 26 32 28 30 33 30 31 33 33 36 42 42 41 42 39 37 35 36 35 34 35 37 40 43 47 48 49 49 49 52 55 56 57 56 55 54 53 51 49 47 43 43 47 45 43 50 55 58 62 63 63 63 65 67 68 70 70 68 65 63 62 61 59 55 56 52 48 50 50 50 56 60 58 57 59 59 58 56 52 46 43
10 11 14 13 12 13 12 11 13 15 16 16 15 14 16 16 24 37 37 32 34 35 33 35 36 35 39 40 41 42 40 39 37 36 36 35 37 41 46 49 50 48 47 49 52 55 55 57 59 59 58 57 57 55 51 48 46 49 52 49 52 61 65 66 67 66 66 66 68 70 70 69 70 71 69 67 64 62 58 54 55 54 48 46 49 50 51 54 56 59 61 61 63 61 54 47 45
11 12 15 13 13 13 12 13 14 16 17 17 16 14 16 14 16 30 38 36 38 39 34 37 38 35 38 41 42 42 41 40 39 39 36 37 41 45 50 53 52 49 49 56 58 58 57 59 62 60 59 59 59 56 52 51 52 57 58 53 58 66 69 69 67 67 68 69 71 71 70 69 69 71 71 67 65 62 58 57 57 57 55 49 46 47 48 50 52 58 61 63 69 67 55 47 48
12 15 16 13 12 13 13 13 14 15 16 16 16 15 16 15 13 20 32 40 41 39 37 40 41 40 42 44 43 42 42 40 41 40 40 44 51 54 54 53 53 52 54 61 61 59 59 60 62 60 60 60 59 56 54 55 57 60 60 56 62 69 71 72 69 68 70 71 72 71 70 69 68 69 70 67 64 62 61 61 61 61 60 56 51 47 47 48 50 55 58 62 71 70 55 47 50
14 15 15 13 13 13 12 13 13 15 15 15 16 16 16 17 15 17 30 44 46 45 46 45 45 45 46 46 44 44 44 42 44 45 49 55 58 58 56 56 56 54 54 57 58 59 61 62 63 62 61 60 57 56 56 56 59 60 56 55 63 69 70 70 68 68 70 70 71 71 71 71 70 71 70 67 62 61 62 62 64 64 61 58 57 54 51 50 51 54 55 60 66 67 56 50 52
14 14 14 14 13 12 12 12 13 15 16 15 16 16 17 18 16 21 34 45 49 51 51 50 49 49 48 48 48 46 44 43 46 51 61 69 69 67 65 62 60 59 55 53 56 61 66 65 65 64 61 59 57 56 56 55 59 58 54 55 65 69 68 68 66 66 67 68 69 70 71 72 72 71 70 67 63 61 61 63 65 65 61 57 57 57 56 55 55 57 59 59 61 62 58 54 55
15 14 15 13 12 12 12 11 12 15 16 16 17 17 18 18 17 24 35 42 48 49 48 51 53 51 51 50 49 45 42 42 43 49 61 72 80 82 78 71 68 66 59 55 62 68 69 67 66 64 61 58 58 56 54 54 58 58 56 59 66 69 69 68 66 64 64 64 66 68 70 70 70 70 68 66 65 63 64 65 65 64 62 60 58 59 61 62 62 62 61 60 61 59 56 57 57
15 15 14 13 12 13 13 12 13 16 17 18 18 19 18 18 19 23 30 38 43 42 43 50 53 51 52 50 47 43 42 43 41 47 55 63 76 83 83 81 76 70 62 59 66 70 68 66 65 62 59 57 55 53 50 51 56 56 57 62 66 68 67 65 63 60 60 60 63 67 67 67 68 69 68 66 66 67 67 67 67 66 66 65 64 64 66 66 66 65 63 63 64 60 56 58 59
15 15 14 13 13 13 13 13 14 16 18 20 20 20 20 20 21 20 25 31 31 34 39 47 51 51 50 46 44 44 44 43 39 45 53 59 69 74 78 85 77 67 62 60 62 63 62 64 63 59 57 55 52 49 46 48 52 52 54 61 65 64 64 61 58 57 57 58 62 66 65 65 66 68 67 66 67 68 69 70 71 70 70 70 69 67 68 68 68 69 68 68 66 62 60 61 61
14 16 14 13 14 14 14 14 15 16 19 22 20 20 22 22 21 20 24 24 23 31 37 41 46 48 46 44 45 45 44 45 42 46 52 57 64 66 70 79 75 67 63 61 58 58 61 63 60 56 53 51 49 47 47 50 51 48 50 58 61 61 60 58 56 55 56 59 63 66 64 63 65 66 66 65 68 71 72 74 75 74 73 75 74 72 72 72 71 71 71 69 66 64 64 64 63
14 15 14 13 14 15 16 15 15 15 18 22 21 20 23 23 21 21 22 20 23 32 36 39 42 42 42 41 44 45 44 46 47 50 54 60 64 63 65 70 70 68 65 64 63 62 64 61 56 54 51 49 49 49 50 52 50 46 46 54 57 57 57 56 56 56 58 61 64 65 63 63 64 65 67 70 74 76 77 78 78 77 77 79 79 78 76 75 74 73 71 68 66 66 66 66 66
14 14 13 13 14 14 16 16 14 14 16 20 21 22 24 23 22 22 22 23 28 35 38 41 41 39 39 39 42 44 45 46 50 54 57 62 65 64 69 70 67 66 65 67 67 66 66 62 58 56 53 53 53 54 55 55 51 45 45 50 53 55 56 57 59 59 60 61 63 64 62 63 67 69 73 76 78 78 78 77 77 77 77 76 76 76 76 75 74 73 71 68 66 67 68 68 69
14 15 14 13 13 13 14 15 14 13 14 18 20 23 25 23 23 22 24 32 36 40 42 42 41 40 38 41 45 46 46 48 53 58 60 63 63 62 70 71 67 66 67 71 71 67 66 64 61 57 53 52 54 55 57 57 53 48 46 48 51 54 57 58 61 61 59 60 63 65 65 66 70 74 77 78 78 76 73 72 74 74 73 71 69 70 71 70 70 71 71 70 69 68 68 69 70
14 15 14 13 13 12 13 13 14 13 13 16 18 22 24 23 24 22 27 38 41 41 43 42 41 40 41 44 46 46 48 48 52 56 59 60 58 59 68 69 67 67 68 71 69 66 65 62 56 50 50 53 56 59 59 59 57 52 47 48 51 55 57 59 61 61 59 61 64 66 67 68 72 75 77 77 75 71 68 68 70 71 68 66 65 65 66 66 68 70 70 70 68 67 67 68 71
17 17 15 16 15 13 13 13 13 13 13 14 16 18 21 23 24 23 30 42 43 43 43 42 41 40 42 44 44 45 47 47 48 51 54 56 54 59 67 68 69 68 65 66 66 65 62 56 51 52 56 58 59 63 63 63 60 54 49 49 54 56 58 60 61 60 61 63 65 67 68 70 73 74 73 73 70 66 65 65 67 67 64 62 60 60 61 64 67 67 65 64 64 66 68 69 70
20 20 18 17 17 16 14 13 14 14 13 14 14 17 20 24 24 25 37 44 43 44 43 42 42 41 41 41 42 43 45 46 46 47 51 53 55 63 70 70 70 69 67 67 67 65 60 55 56 60 62 56 55 60 63 65 61 54 51 52 56 59 61 61 61 62 63 64 65 66 68 71 73 72 70 68 65 63 62 63 63 63 61 58 58 58 61 63 63 62 60 60 63 67 70 70 70
22 21 20 20 19 20 17 16 16 14 14 14 14 17 18 21 23 27 41 46 43 45 44 42 43 42 40 39 39 41 45 46 45 45 50 56 59 63 69 69 70 70 69 69 67 64 60 58 61 62 60 54 53 58 61 64 63 57 55 55 58 62 63 64 64 65 65 65 66 66 67 69 69 68 65 62 60 59 60 60 58 59 58 56 55 57 60 60 59 58 57 59 64 69 72 72 72
27 22 23 24 20 21 19 17 18 15 16 15 15 18 17 19 22 26 41 48 45 45 45 44 43 42 39 38 37 39 45 46 45 48 52 60 65 65 68 69 70 72 71 70 68 66 64 64 63 59 56 55 56 59 62 65 65 62 59 58 62 66 66 66 67 67 66 65 64 63 63 63 62 60 58 57 55 55 57 58 56 56 55 54 54 55 58 58 58 57 55 57 64 70 73 73 73
32 25 24 26 21 20 20 17 18 17 16 17 17 19 18 18 19 22 37 49 48 47 47 45 44 41 39 41 38 38 43 45 49 54 54 58 64 67 73 72 72 73 72 71 70 69 67 67 65 60 57 59 61 61 63 65 65 65 64 63 66 68 69 69 68 67 67 65 62 60 59 58 56 54 54 53 52 54 56 56 55 54 53 53 54 55 57 58 58 55 53 56 64 70 72 72 74
33 29 27 29 24 21 20 18 19 17 17 18 19 20 19 18 17 18 29 44 47 47 48 46 45 42 41 43 40 37 40 43 52 58 53 53 57 62 69 72 73 74 73 73 72 69 66 66 67 66 59 57 62 65 66 66 65 66 67 67 66 68 70 69 67 66 65 63 60 59 56 54 52 51 51 50 51 53 55 57 56 54 54 55 55 55 56 56 56 53 52 56 62 69 72 73 76
31 29 28 30 27 22 21 20 19 19 19 20 20 20 20 18 17 16 20 35 45 45 47 46 45 44 44 43 40 37 38 40 51 57 52 50 53 56 59 63 68 69 68 68 68 64 63 67 71 70 62 56 62 68 70 68 64 64 67 68 66 67 69 68 66 65 63 61 58 56 54 52 51 50 50 49 49 52 56 58 55 52 52 55 56 54 54 55 55 52 53 58 62 69 74 75 77
30 30 30 29 27 23 21 20 20 20 19 20 20 20 21 18 18 18 16 26 39 42 43 45 45 45 44 43 40 37 37 40 47 52 52 49 50 54 55 56 59 60 61 64 65 63 65 71 74 70 62 57 63 69 72 69 65 64 65 67 68 67 67 66 64 62 59 57 54 53 51 50 50 49 48 48 48 52 57 55 51 53 55 56 57 53 53 55 54 52 54 59 63 68 73 75 76
28 29 30 30 28 24 21 20 20 20 20 22 22 21 21 19 19 19 16 21 34 38 40 42 42 43 42 42 40 36 37 40 43 47 50 48 49 54 56 57 57 58 60 63 64 65 68 72 73 69 61 57 62 67 72 70 67 66 64 66 69 67 65 63 61 57 54 52 52 51 49 49 48 47 46 45 48 53 58 56 50 54 58 56 54 52 52 53 53 52 54 59 63 65 69 72 73
27 28 30 30 29 25 22 21 20 20 21 23 24 23 22 20 19 19 17 21 29 33 37 39 39 40 40 40 38 37 38 39 40 44 47 47 49 55 58 58 57 58 60 60 60 61 63 64 66 68 63 58 60 63 69 71 67 66 65 66 68 66 62 61 58 55 52 52 51 50 47 46 44 41 39 40 44 48 54 57 53 52 54 53 52 51 51 54 54 52 51 57 63 64 66 68 69
29 28 29 29 29 26 24 24 23 22 22 23 24 23 22 20 19 20 21 21 22 24 29 33 35 37 38 38 37 37 38 38 39 41 45 47 49 56 60 59 56 58 59 56 56 56 57 58 62 68 66 58 57 60 66 69 68 68 66 66 67 64 62 61 57 54 53 51 48 46 45 42 39 36 36 38 41 44 48 54 53 52 54 54 53 52 50 51 51 50 49 54 60 63 66 67 66
31 29 27 28 27 26 26 26 25 25 24 24 25 25 24 22 22 24 23 21 17 18 23 27 31 35 37 37 37 37 37 38 39 41 46 50 50 53 56 55 55 58 60 56 54 54 57 60 62 70 71 60 57 62 66 68 69 70 68 67 66 64 62 59 54 50 49 47 46 47 46 43 41 38 38 38 39 42 44 48 49 50 52 52 51 49 47 45 45 46 48 53 58 61 65 67 66
34 31 27 27 26 27 26 25 25 27 30 30 27 28 27 25 26 25 24 23 17 16 22 26 30 34 36 37 37 38 37 38 40 43 46 49 50 51 52 52 49 49 53 52 53 55 59 61 62 66 68 62 61 65 68 71 70 69 70 70 67 63 60 55 50 47 46 47 49 49 47 45 43 40 38 38 37 38 39 41 43 45 46 46 46 44 43 42 44 46 48 51 55 58 61 63 63
34 32 29 27 25 25 24 24 27 28 32 32 28 31 32 28 27 26 27 29 25 21 22 25 32 36 37 37 37 37 37 37 40 43 44 46 50 51 52 53 47 44 47 49 51 55 58 61 62 61 61 62 65 67 70 74 71 69 70 70 67 61 55 51 49 47 46 47 48 48 46 45 43 41 40 39 39 38 37 37 38 39 40 41 42 42 40 40 41 45 48 50 53 55 57 59 60
32 32 30 27 25 25 25 28 30 31 33 33 32 34 32 28 27 27 32 36 35 31 29 29 34 38 38 37 37 37 37 38 41 43 44 48 52 53 52 51 47 45 48 51 53 55 56 60 60 59 59 61 66 70 74 75 73 71 70 67 63 56 51 50 50 49 47 48 48 47 46 45 44 43 42 42 41 40 40 39 38 38 40 40 41 41 40 39 40 43 45 48 50 52 53 55 56
31 33 32 29 27 28 31 33 35 36 36 37 38 35 30 28 28 31 37 40 40 39 39 39 39 40 40 38 37 37 38 40 41 43 45 49 53 53 52 49 45 44 48 53 56 57 58 59 57 58 63 67 71 75 76 75 73 72 69 65 60 55 52 50 50 51 49 48 50 48 47 46 45 44 44 43 43 42 42 42 43 42 42 41 40 39 40 41 42 43 44 45 48 49 50 51 52
32 35 34 30 32 34 36 38 38 39 37 34 37 34 31 33 34 37 42 44 45 44 44 44 43 42 41 40 39 38 40 40 41 43 46 49 52 53 51 48 46 46 49 53 55 58 59 59 58 60 67 73 76 77 75 74 75 71 67 64 60 58 57 53 52 53 52 51 50 48 46 45 43 42 42 41 41 40 39 41 43 44 46 44 42 39 39 39 42 44 45 46 47 47 47 48 50
33 37 35 33 37 39 38 39 38 39 37 32 33 34 31 34 37 43 47 48 48 47 44 44 45 43 42 42 41 40 40 40 41 44 46 50 53 54 52 50 50 50 52 54 56 58 60 62 60 61 69 75 76 76 75 77 78 71 66 64 61 61 60 56 56 56 56 53 50 47 46 44 41 39 38 37 36 34 34 36 38 41 45 46 44 41 38 37 38 41 44 46 49 49 47 46 47
33 35 35 35 39 40 41 44 41 40 39 31 30 35 32 33 40 46 50 51 51 49 46 44 45 45 44 43 43 42 42 42 44 46 51 58 61 60 58 54 55 57 57 57 57 58 64 66 62 61 69 75 74 73 74 80 79 70 65 64 61 61 59 57 57 57 56 54 50 48 46 44 41 39 37 36 34 32 31 34 37 40 44 45 45 43 40 37 34 36 38 41 46 49 48 47 46
33 36 37 36 40 40 41 46 41 39 40 31 32 40 34 32 41 48 52 53 53 51 48 46 46 46 45 46 46 45 45 46 49 54 61 68 70 68 64 58 58 63 62 59 58 60 66 68 63 61 65 70 72 72 76 80 77 69 66 64 61 60 58 57 56 53 53 52 50 49 47 45 43 41 40 37 35 33 32 36 40 41 42 43 43 42 39 38 35 34 34 34 40 44 47 48 47
34 37 37 37 41 41 43 47 43 41 39 31 36 44 38 35 41 49 53 52 53 52 48 47 47 47 47 47 47 48 53 55 56 62 68 71 73 70 64 58 59 64 63 60 59 63 66 65 62 61 62 66 70 75 79 76 71 69 67 62 60 61 60 58 56 51 51 51 50 50 49 47 44 43 42 39 37 35 35 40 43 43 44 43 42 41 37 37 37 37 35 35 38 41 44 45 46
35 36 40 41 44 45 49 53 47 40 36 30 34 41 42 42 45 50 53 51 52 51 48 47 47 48 48 48 49 53 61 64 63 68 71 71 74 71 62 60 63 63 62 61 61 63 65 64 61 61 67 72 74 78 81 76 70 69 65 60 61 62 62 62 59 52 49 50 51 51 50 50 48 47 44 41 41 38 37 43 46 46 48 47 46 43 38 37 38 37 37 38 39 41 42 43 43
38 40 41 42 45 45 47 49 42 36 36 34 35 39 45 49 52 57 57 53 53 51 50 50 48 48 49 52 60 61 58 59 64 71 72 71 73 68 61 62 63 60 59 60 62 63 63 63 63 66 74 82 82 82 83 80 73 67 61 60 63 62 62 63 59 51 49 51 51 50 51 52 51 48 44 41 43 41 38 42 47 49 52 52 50 44 38 36 36 36 36 37 38 38 39 41 42
41 42 40 39 41 41 44 45 41 40 40 40 43 48 53 56 56 59 59 56 55 54 53 52 51 51 49 52 63 66 62 62 64 69 70 69 67 63 58 60 61 58 56 58 61 63 63 62 65 71 79 84 85 84 85 81 73 65 61 63 64 62 62 62 57 51 51 53 51 50 51 52 51 49 46 43 43 43 39 40 43 47 50 51 47 40 34 33 34 34 34 35 34 34 34 37 41
43 40 38 39 39 40 42 42 43 43 41 43 51 56 58 59 57 58 60 59 58 57 57 60 63 64 60 57 59 63 70 75 72 70 71 68 64 61 59 60 61 57 55 58 60 62 63 62 66 75 81 84 85 84 83 78 68 64 64 64 63 62 62 61 56 53 54 54 52 52 53 54 53 52 51 49 46 44 39 37 38 39 41 42 39 35 33 32 33 34 32 32 31 31 33 35 39
42 40 39 39 38 40 40 42 46 44 40 47 59 62 60 59 60 61 62 60 61 62 65 69 72 71 68 68 67 64 71 81 80 77 76 71 67 65 63 61 61 58 55 58 60 62 62 64 69 76 80 86 88 84 80 72 65 66 67 65 64 62 61 59 56 56 56 54 53 52 53 56 57 56 56 55 51 45 39 35 35 35 34 36 37 36 34 32 32 31 30 31 33 33 34 35 36
39 42 42 41 44 44 39 40 44 41 42 51 58 63 63 58 59 65 64 65 69 69 68 70 71 70 71 78 83 80 77 81 81 78 76 73 71 70 67 63 61 59 57 58 60 61 62 66 74 77 80 85 87 83 79 74 69 70 69 66 64 61 59 58 56 57 57 55 54 54 55 58 59 59 59 60 55 48 40 34 32 32 32 35 38 37 33 30 29 27 28 32 33 32 33 34 35
38 41 43 44 50 50 43 42 41 40 47 53 54 61 62 53 54 63 66 69 74 71 67 67 70 73 74 78 83 84 80 79 79 76 74 72 71 71 70 66 62 58 57 58 60 62 66 74 78 79 81 83 82 80 79 76 74 73 72 69 65 64 64 63 62 60 60 58 56 57 59 61 62 61 61 61 57 48 41 34 29 29 30 32 36 35 32 30 28 27 29 31 31 31 32 34 36
40 40 42 45 48 46 44 46 43 42 50 56 58 62 58 50 53 61 65 67 70 69 66 65 66 69 71 72 74 76 76 80 84 81 78 75 73 73 72 69 65 61 59 60 61 62 68 75 77 77 79 82 82 79 76 76 77 76 73 69 66 67 69 68 65 62 60 59 59 60 62 64 65 64 64 62 56 48 43 35 27 26 28 31 35 34 31 31 31 30 30 30 30 30 33 34 36
46 44 43 46 49 46 45 47 47 46 48 53 58 60 55 52 55 59 63 64 66 69 67 65 66 68 68 69 71 71 74 82 88 86 84 82 78 76 73 69 66 63 62 62 64 63 65 69 70 71 76 80 82 79 74 74 75 74 71 66 64 65 67 66 62 58 57 58 59 60 62 64 66 66 66 62 55 50 48 40 30 25 26 31 36 35 31 31 32 32 32 32 32 30 30 32 33